Location: Unspecified
(0.0000°N, 0.0000°E)
Time: 02:48:05
(UTC+00:00)

Vanguard 2 Rocket - Pass Details

Date: 18 December 2018
Orbit: 556 x 3325 km, 32.9° (Epoch: 18 March)

Event Time Altitude Azimuth Distance (km) Brightness Sun altitude
Rises 17:15:13 0° 252° (WSW) 6,154 13.4 9.5°
Reaches altitude 10° 17:20:38 10° 237° (WSW) 5,557 13.4 8.3°
Maximum altitude 17:33:06 22° 193° (SSW) 5,184 11.3 5.4°
Drops below altitude 10° 17:47:10 10° 149° (SSE) 6,237 11.1 2.2°
Sets 17:53:59 0° 134° (SE) 7,062 11.2 0.6°
